Showing default

METEOR 3-5, 21655

Orbit data source: Space-Track

METEOR 3-5, 21655 is a payload satellite owned by Rosgidromet (CIS) in LEO that was launched on Thu, 15 Aug 1991 UTC via a TSIKLON-3 launch vehicle from the Plesetsk Missile And Space Complex (PKMTR). Payloads include a variety of satellites, spacecraft, and rockets equipped with specific instruments for various scientific and technological missions. These include communications satellites like Starlink; space stations such as the ISS; scientific satellites like the Hubble; Earth observation satellites from companies like Planet Labs, Umbra, and HawkEye 360; GPS; miniature CubeSats for education and research; and military/defense satellites.

Loading next visibility...
METEOR 3-5 details
Identifier
21655, 1991-056A
Orbit
LEO
Last TLE update18 hours ago
Origin
Flag of CISRosgidromet (CIS)
ManufacturerVNIIEM
MissionCivil Weather
Bus & MotorMETEOR-3, Unknown motor
Mass2,150 kg wet, 2,150 kg dry
Launch date (UTC)
1991-08-15 (33 years ago)
Launch vehicle
TSIKLON-3
Launch site
Plesetsk Missile And Space Complex (PKMTR)
Object type
Payload
Rocket body
Debris
Shape & HBRCyl + 2 Pan, 12.7 m
Radar Cross Section21.153 m², Large (>1 m²)

Expand to show TLE details & history

TLE from 18 hours ago
0 METEOR 3-5
1 21655U 91056A   25023.79762372 -.00000083  00000-0 -24648-3 0  9995
2 21655  82.5584 139.3483 0012595 335.8909  24.1622 13.17141673607513
Epoch: 2025-01-23T19:08Z
Definitive object data (Epoch: 2025-01-23T19:08:34.689Z)
Latitude-0.00006°
Longitude88.83377°
Altitude1,189.762 km
Speed7.263 km/s
True Right ascension09h 17m 23s
True Declination0° 00' 00"
Sunlit
Object was in full shadow at TLE epoch
Visualization TLE readout
Latitude-81.03731°
Longitude32.82442°
Altitude1,218.956 km
Speed7.247 km/s
Apparent Right ascension02h 49m 12s
Apparent Declination-63° 36' 53"
Sunlit
Object is in daylight
Visualization observer readout
Local Sidereal Time14:12:35
Azimuth189.888° SSW
Elevation-65.69°
Doppler factor1
Orbital elements
Apogee altitude1,202.437 km
Perigee altitude1,183.366 km
Semi-major axis7,571.039 km
Eccentricity0.0012595
Inclination82.5584°
RAAN139.3483°
Arg. of periapsis335.8909°
True anomaly24.22136°
Mean anomaly24.1622°
Eccentric anomaly24.19177°
Mean motion3.29466 °/min
BSTAR-0.00024648
Orbital period109.27 mins
Loading maneuver chart data...
Loading historical data...
Loading historical data...
Loading historical data...
Loading historical data...
Loading historical data...
Loading historical data...
Loading historical data...

METEOR 3-5 Visibility forecast

Observer location: undefined°, undefined

Span
Click to sort rows by Start time (UTC) header in descending order
Start Az.
Max El. time (UTC)
Max El. Az.
Max El.
End time (UTC)
End Az.
8 mins2025-01-24 17:37:39.436Z29.135° NE2025-01-24 17:41:39.436Z62.983° ENE15.348°2025-01-24 17:45:39.436Z97.453° ESE
13 mins2025-01-24 19:26:39.436Z352.271° N2025-01-24 19:32:39.436Z348.507° N44.778°2025-01-24 19:39:39.436Z174.88° S
5 mins2025-01-24 21:19:39.436Z302.75° NW2025-01-24 21:21:39.436Z285.56° WNW13.87°2025-01-24 21:24:39.436Z259.459° W
12 mins2025-01-25 07:42:39.436Z163.919° S2025-01-25 07:48:39.436Z81.969° E39.596°2025-01-25 07:54:39.436Z17.726° NNE
10 mins2025-01-25 09:34:39.436Z245.291° WSW2025-01-25 09:38:39.436Z286.303° WNW23.634°2025-01-25 09:44:39.436Z343.575° N
|